Weather History for NW Arkansas Airport, AR

Change the Weather History Date:

Thursday, April 25, 2013

  Actual Average Record
Temperature  
Mean Temperature 48 °F -  
Max Temperature 68 °F - - ()
Min Temperature 30 °F - - ()
Degree Days  
Heating Degree Days 17    
Moisture  
Dew Point 30 °F    
Average Humidity 52    
Maximum Humidity 100    
Minimum Humidity 21    
Precipitation  
Precipitation 0.00 in - - ()
Sea Level Pressure  
Sea Level Pressure 30.30 in    
Wind  
Wind Speed 2 mph (SSE)    
Max Wind Speed 9 mph    
Max Gust Speed -    
Visibility 10 miles    
Events      
T = Trace of Precipitation, MM = Missing Value Source: NWS Daily Summary

Daily Weather History Graph

Daily Weather History Graph

Search for Another Location

Airport:

Trip Planner

Search our weather history database for the weather conditions in past years. The results will help you decide how hot, cold, wet, or windy it might be!

Date:

Astronomy

Apr. 25, 2013 Rise Set
Actual Time 6:30 AM CDT 8:00 PM CDT
Civil Twilight 6:03 AM CDT 8:27 PM CDT
Nautical Twilight 5:31 AM CDT 8:59 PM CDT
Astronomical Twilight 4:56 AM CDT 9:34 PM CDT
Moon 8:13 PM CDT (4/25) 6:14 AM CDT (4/25)
Length of Visible Light 14h 23m
Length of Day
13h 29m
Full, 100% of the Moon is Illuminated
Apr 25
Full
Apr 25
Full
May 2
Last Quarter
May 9
New
May 17
First Quarter

Hourly Weather History & Observations

Time (CDT) Temp. Windchill Dew Point Humidity Pressure Visibility Wind Dir Wind Speed Gust Speed Precip Events Conditions
12:53 AM 36.0 °F 33.3 °F 30.9 °F 82% 30.33 in 10.0 mi SSE 3.5 mph - N/A   Clear
1:53 AM 33.1 °F - 28.9 °F 85% 30.32 in 10.0 mi Calm Calm - N/A   Clear
2:53 AM 33.1 °F 27.7 °F 28.9 °F 85% 30.30 in 10.0 mi SSW 5.8 mph - N/A   Clear
3:53 AM 33.1 °F - 28.9 °F 85% 30.30 in 10.0 mi Calm Calm - N/A   Clear
4:53 AM 32.0 °F - 28.0 °F 85% 30.32 in 10.0 mi Calm Calm - N/A   Clear
5:53 AM 32.0 °F - 28.0 °F 85% 30.33 in 10.0 mi Calm Calm - N/A   Clear
6:53 AM 30.9 °F - 30.9 °F 100% 30.34 in 10.0 mi Calm Calm - N/A   Clear
7:53 AM 36.0 °F - 32.0 °F 86% 30.37 in 10.0 mi Calm Calm - N/A   Clear
8:53 AM 44.1 °F - 35.1 °F 71% 30.38 in 10.0 mi Calm Calm - N/A   Clear
9:53 AM 53.1 °F - 30.0 °F 41% 30.38 in - WSW 5.8 mph - N/A   Unknown
10:53 AM 55.0 °F - 32.0 °F 42% 30.38 in 10.0 mi Calm Calm - N/A   Clear
11:53 AM 59.0 °F - 27.0 °F 29% 30.37 in 10.0 mi Calm Calm - N/A   Clear
12:53 PM 62.1 °F - 27.0 °F 26% 30.34 in 10.0 mi Variable 3.5 mph - N/A   Clear
1:53 PM 64.9 °F - 28.0 °F 25% 30.32 in 10.0 mi Variable 6.9 mph - N/A   Clear
2:53 PM 64.9 °F - 27.0 °F 24% 30.30 in 10.0 mi Calm Calm - N/A   Clear
3:53 PM 66.0 °F - 26.1 °F 22% 30.28 in 10.0 mi Calm Calm - N/A   Clear
4:53 PM 66.9 °F - 25.0 °F 21% 30.25 in 10.0 mi Calm Calm - N/A   Clear
5:53 PM 66.0 °F - 28.9 °F 25% 30.23 in 10.0 mi ENE 3.5 mph - N/A   Clear
6:53 PM 64.9 °F - 30.9 °F 28% 30.22 in 10.0 mi Calm Calm - N/A   Clear
7:53 PM 61.0 °F - 33.1 °F 35% 30.23 in 10.0 mi SSW 5.8 mph - N/A   Clear
8:53 PM 60.1 °F - 33.1 °F 36% 30.23 in 10.0 mi SSW 5.8 mph - N/A   Clear
9:53 PM 57.9 °F - 36.0 °F 44% 30.24 in 10.0 mi ESE 4.6 mph - N/A   Clear
10:53 PM 57.9 °F - 34.0 °F 41% 30.22 in 10.0 mi SSE 9.2 mph - N/A   Clear
11:53 PM 57.0 °F - 33.1 °F 40% 30.20 in 10.0 mi SE 9.2 mph - N/A   Clear